Regional Weather Roundup
Issued by NWS

Home | Current Version | Previous Version | Graphics & Text | Print | Product List | Glossary On
Versions: 1 2 3 4 5 6 7 8 9 10 11 12 13 14 15 16 17 18 19 20 21 22 23 24 25 26 27 28 29 30 31 32 33 34 35 36 37 38 39 40 41 42 43 44 45 46 47 48 49 50
713
ASUS45 KCYS 262210
RWRWY

WYOMING REGIONAL WEATHER ROUNDUP
NATIONAL WEATHER SERVICE CHEYENNE WY
400 PM MDT MON SEP 26 2016

NOTE:  "FAIR" INDICATES FEW OR NO CLOUDS BELOW 12,000 FEET
WITH NO SIGNIFICANT WEATHER AND/OR OBSTRUCTIONS TO VISIBILITY.

WYZ001-262300-
YELLOWSTONE NATIONAL PARK

CITY           SKY/WX    TMP DP  RH WIND       PRES   REMARKS
LK YELLOWSTONE   N/A     57  39  51 CALM      30.50F
W YELLOWSTONE  NOT AVBL

$$
WYZ002>013-054>058-071-098>099-262300-
NORTHERN WYOMING

CITY           SKY/WX    TMP DP  RH WIND       PRES   REMARKS
JACKSON        SUNNY     66  37  34 CALM      30.41F
CODY           FAIR      69  46  43 E10       30.33F
GREYBULL       FAIR      70  44  39 CALM      30.29F
WORLAND        FAIR      70  42  36 N5        30.29F
SHERIDAN       FAIR      73  46  38 CALM      30.27F
BUFFALO        FAIR      67  42  40 VRB5      30.32F
GILLETTE       FAIR      68  45  43 NW15      30.28F
HULETT         FAIR      66  41  39 NW10G16   30.29S
NEWCASTLE      FAIR      68  37  32 NW13G20   30.28F

$$
WYZ014>020-022>026-101>103-262300-
CENTRAL WYOMING

CITY           SKY/WX    TMP DP  RH WIND       PRES   REMARKS
BIG PINEY      FAIR      69  36  29 SW5       30.41F
PINEDALE       FAIR      68  32  26 CALM      30.43S
DUBOIS         FAIR      66  37  34 SE10      30.41S
LANDER         FAIR      69  42  37 SE5       30.35F
RIVERTON       FAIR      67  42  40 VRB5      30.36F
CASPER         FAIR      72  41  32 W10G17    30.32F
DOUGLAS        FAIR      73  39  29 NW17G23   30.31F

$$
WYZ021-027>030-104>119-262300-
SOUTHERN WYOMING

CITY           SKY/WX    TMP DP  RH WIND       PRES   REMARKS
EVANSTON       FAIR      67  36  31 N5        30.43F
FORT BRIDGER   FAIR      70  35  27 N3        30.45F
ROCK SPRINGS   FAIR      65  37  35 VRB3      30.41F
DIXON          FAIR      69  34  27 W7        30.43F
RAWLINS        FAIR      67  35  30 W12       30.41F
SARATOGA       FAIR      68  32  26 W8G24     30.42F
LARAMIE        FAIR      69  33  26 N5        30.39F
CHEYENNE       FAIR      72  33  24 NW14      30.33F
TORRINGTON     FAIR      74  36  25 VRB7      30.25F
PINE BLUFFS    FAIR      72  34  25 N12       30.30F

$$




USA.gov is the U.S. government's official web portal to all federal, state and local government web resources and services.